Regional Weather Roundup
Issued by NWS

Home | Current Version | Previous Version | Graphics & Text | Print | Product List | Glossary On
Versions: 1 2 3 4 5 6 7 8 9 10 11 12 13 14 15 16 17 18 19 20 21 22 23 24 25 26 27 28 29 30 31 32 33 34 35 36 37 38 39 40 41 42 43 44 45 46 47 48 49 50
000
ASUS43 KLSX 191357
RWRMO

WEATHER SUMMARY FOR MISSOURI
NATIONAL WEATHER SERVICE SPRINGFIELD MO
800 AM CST FRI JAN 19 2018

NOTE: "FAIR" INDICATES FEW OR NO CLOUDS BELOW 12,000 FEET WITH NO
       SIGNIFICANT WEATHER AND/OR OBSTRUCTIONS TO VISIBILITY.
       CURRENT SKY AND/OR WEATHER CONDITIONS ARE NOT AVAILABLE FOR
       CHILLICOTHE AND FARMINGTON.

MOZ001>031-035>038-043-044-053-054-191500-
...NORTHERN AND WESTERN MISSOURI...

CITY           SKY/WX    TMP DP  RH WIND       PRES   REMARKS
KANSAS CTY INT CLOUDY    31  17  56 S15       29.93S WCI  20
LEE`S SUMMIT   CLOUDY    31  18  58 S13       29.97R WCI  21
ST JOSEPH      CLOUDY    31  22  69 S12       29.91F WCI  22
CHILLICOTHE      N/A     30  18  60 S8        29.95R WCI  22

$$
MOZ066>068-077>081-088>096-101>105-191500-
...SOUTHWEST MISSOURI...

CITY           SKY/WX    TMP DP  RH WIND       PRES   REMARKS
SPRINGFIELD    CLOUDY    28  13  53 S12       30.07S WCI  18
JOPLIN         CLOUDY    32  19  58 S16       30.06F WCI  21
BRANSON        PTCLDY    32  10  40 S5        30.12S WCI  27

$$
MOZ032>034-039>042-045>050-055>058-069>072-191500-
...CENTRAL MISSOURI...

CITY           SKY/WX    TMP DP  RH WIND       PRES   REMARKS
COLUMBIA       NOT AVBL
JEFFERSON CITY MIX PCPN  31  14  49 S5        30.06F WCI  26
ROLLA          CLOUDY    30  13  49 S16       30.07S WCI  19
SEDALIA        CLOUDY    32  18  56 SW20      30.00F WCI  20
WARRENSBURG    CLOUDY    30  18  59 S8        30.00S WCI  23

$$
MOZ051-052-059>065-191500-
...EAST CENTRAL MISSOURI...

CITY           SKY/WX    TMP DP  RH WIND       PRES   REMARKS
ST LOUIS INTL  CLOUDY    31  14  49 S6        30.07F WCI  25

$$
MOZ072>076-082>087-097>100-106>115-191500-
...SOUTH CENTRAL AND SOUTHEAST MISSOURI...

CITY           SKY/WX    TMP DP  RH WIND       PRES   REMARKS
CAPE GIRARDEAU FAIR      19  15  84 S6        30.22F WCI  11
POPLAR BLUFF   FAIR      22  18  85 CALM      30.22S
WEST PLAINS    CLOUDY    28  12  51 S5        30.14S WCI  23

$$


USA.gov is the U.S. government's official web portal to all federal, state and local government web resources and services.